Date String (YYYY-MM-DD hh:mm:ss) UTC,Instrument flags,Ambient pressure (hPa),Sample flow (lpm),Bypass flow (lpm),Sample temperature (°C),Ambient temperature (°C),ASC tube jacket temperature (°C),LED temperature (°C),Box temperature (°C),Sample RH (%),Span deviation,Mass concentration (μg/m³),Mass concentration (μg/m³),Mass concentration (μg/m³)
DateTimeUTC,F1_M11,P_M11,Q1_M11,Q2_M11,T1_M11,T2_M11,T3_M11,T4_M11,T5_M11,U1_M11,ZSPAN_M11,X0_M11,X2_M11,X1_M11
2021-12-20 09:00:00,,0824.8,5.00,0.00,23.7,22.8,00.0,32.7,25.3,06.4,0000.0,0001.07,0000.59,0000.39
2021-12-20 09:01:00,,0824.6,5.00,0.00,23.7,22.8,00.0,32.7,25.3,06.3,0000.0,0000.92,0000.53,0000.37
2021-12-20 09:02:00,,0824.7,5.00,0.00,23.7,22.7,00.0,32.7,25.3,06.2,0000.0,0000.92,0000.51,0000.34
2021-12-20 09:03:00,,0824.7,5.01,0.00,23.6,22.7,00.0,32.7,25.2,06.1,0000.0,0000.79,0000.46,0000.32
2021-12-20 09:04:00,,0824.6,5.00,0.00,23.6,22.6,00.0,32.7,25.2,06.2,0000.0,0000.74,0000.45,0000.31
2021-12-20 09:05:00,,0824.7,5.01,0.00,23.5,22.6,00.0,32.7,25.2,06.3,0000.0,0000.62,0000.42,0000.31
2021-12-20 09:06:00,,0824.8,4.99,0.00,23.5,22.6,00.0,32.6,25.2,06.2,0000.0,0000.66,0000.44,0000.31
2021-12-20 09:07:00,,0824.8,5.00,0.00,23.5,22.6,00.0,32.6,25.2,06.0,0000.0,0000.88,0000.50,0000.34
2021-12-20 09:08:00,,0824.8,5.00,0.00,23.5,22.6,00.0,32.6,25.2,05.9,0000.0,0001.03,0000.57,0000.37
2021-12-20 09:09:00,,0824.7,5.00,0.00,23.5,22.6,00.0,32.6,25.1,05.9,0000.0,0001.09,0000.60,0000.39
2021-12-20 09:10:00,,0824.6,5.00,0.00,23.5,22.6,00.0,32.6,25.1,05.9,0000.0,0001.18,0000.64,0000.41
2021-12-20 09:11:00,,0824.7,5.00,0.00,23.5,22.6,00.0,32.6,25.1,06.1,0000.0,0002.16,0000.66,0000.42
2021-12-20 09:12:00,,0824.7,4.99,0.00,23.4,22.6,00.0,32.5,25.1,06.1,0000.0,0002.41,0000.68,0000.43
2021-12-20 09:13:00,,0824.8,5.01,0.00,23.4,22.6,00.0,32.5,25.0,06.1,0000.0,0002.49,0000.67,0000.43
2021-12-20 09:14:00,,0824.6,5.00,0.00,23.4,22.6,00.0,32.5,25.0,06.0,0000.0,0002.55,0000.68,0000.43
2021-12-20 09:15:00,,0824.7,5.01,0.00,23.4,22.6,00.0,32.5,25.0,06.0,0000.0,0002.72,0000.68,0000.44
2021-12-20 09:16:00,,0824.9,5.00,0.00,23.3,22.5,00.0,32.5,25.0,06.0,0000.0,0002.93,0000.71,0000.44
2021-12-20 09:17:00,,0824.9,5.00,0.00,23.3,22.5,00.0,32.5,25.0,05.9,0000.0,0003.07,0000.69,0000.44
2021-12-20 09:18:00,,0824.9,4.99,0.00,23.3,22.5,00.0,32.5,25.0,06.0,0000.0,0002.91,0000.65,0000.43
2021-12-20 09:19:00,,0824.9,5.01,0.00,23.3,22.5,00.0,32.4,25.0,06.0,0000.0,0002.79,0000.60,0000.41
2021-12-20 09:20:00,,0824.9,5.01,0.00,23.3,22.5,00.0,32.4,25.0,06.0,0000.0,0002.77,0000.59,0000.40
2021-12-20 09:21:00,,0824.8,5.00,0.00,23.3,22.5,00.0,32.4,24.9,06.1,0000.0,0002.75,0000.59,0000.38
2021-12-20 09:22:00,,0824.8,5.00,0.00,23.3,22.5,00.0,32.4,24.9,06.0,0000.0,0001.80,0000.60,0000.38
2021-12-20 09:23:00,,0824.8,4.99,0.00,23.3,22.5,00.0,32.4,24.9,06.1,0000.0,0001.61,0000.59,0000.38
2021-12-20 09:24:00,,0824.8,5.00,0.00,23.3,22.4,00.0,32.4,24.9,06.0,0000.0,0001.45,0000.57,0000.38
2021-12-20 09:25:00,,0824.7,4.99,0.00,23.3,22.5,00.0,32.3,24.9,06.0,0000.0,0001.37,0000.55,0000.38
2021-12-20 09:26:00,,0824.7,5.02,0.00,23.3,22.4,00.0,32.3,24.9,05.9,0000.0,0001.42,0000.52,0000.38
2021-12-20 09:27:00,,0824.6,4.99,0.00,23.3,22.4,00.0,32.3,24.9,05.9,0000.0,0001.28,0000.50,0000.38
2021-12-20 09:28:00,,0824.6,5.01,0.00,23.3,22.4,00.0,32.3,24.9,05.9,0000.0,0001.04,0000.49,0000.38
2021-12-20 09:29:00,,0824.8,5.00,0.00,23.3,22.4,00.0,32.3,24.9,05.9,0000.0,0000.99,0000.48,0000.39
2021-12-20 09:30:00,,0824.8,5.01,0.00,23.2,22.3,00.0,32.3,24.8,06.0,0000.0,0001.03,0000.50,0000.39
2021-12-20 09:31:00,,0824.9,5.03,0.00,23.3,22.3,00.0,32.3,24.9,06.0,0000.0,0001.02,0000.49,0000.39
2021-12-20 09:32:00,,0824.9,5.00,0.00,23.2,22.3,00.0,32.3,24.8,06.0,0000.0,0000.96,0000.46,0000.39
2021-12-20 09:33:00,,0824.9,5.01,0.00,23.2,22.4,00.0,32.3,24.8,05.9,0000.0,0001.21,0000.44,0000.39
2021-12-20 09:34:00,,0824.9,5.00,0.00,23.2,22.4,00.0,32.3,24.8,05.8,0000.0,0001.21,0000.45,0000.40
2021-12-20 09:35:00,,0824.9,4.99,0.00,23.2,22.4,00.0,32.3,24.7,05.8,0000.0,0001.24,0000.46,0000.40
2021-12-20 09:36:00,,0824.9,5.01,0.00,23.2,22.3,00.0,32.3,24.8,05.8,0000.0,0001.25,0000.47,0000.41
2021-12-20 09:37:00,,0824.9,5.01,0.00,23.2,22.3,00.0,32.3,24.8,05.7,0000.0,0001.00,0000.47,0000.41
2021-12-20 09:38:00,,0824.9,4.99,0.00,23.2,22.3,00.0,32.3,24.8,05.7,0000.0,0000.92,0000.47,0000.42
2021-12-20 09:39:00,,0824.9,5.00,0.00,23.2,22.3,00.0,32.3,24.8,05.7,0000.0,0000.93,0000.48,0000.43
2021-12-20 09:40:00,,0824.9,5.01,0.00,23.2,22.3,00.0,32.3,24.8,05.7,0000.0,0000.97,0000.50,0000.44
2021-12-20 09:41:00,,0825.0,5.00,0.00,23.2,22.3,00.0,32.3,24.8,05.7,0000.0,0000.96,0000.49,0000.43
2021-12-20 09:42:00,,0824.9,5.00,0.00,23.2,22.3,00.0,32.3,24.8,05.7,0000.0,0000.96,0000.49,0000.44
2021-12-20 09:43:00,,0824.9,4.99,0.00,23.2,22.3,00.0,32.3,24.7,05.7,0000.0,0000.97,0000.51,0000.45
2021-12-20 09:44:00,,0824.9,5.01,0.00,23.2,22.3,00.0,32.3,24.8,05.7,0000.0,0000.74,0000.53,0000.46
2021-12-20 09:45:00,,0824.9,5.00,0.00,23.2,22.2,00.0,32.2,24.7,05.7,0000.0,0000.76,0000.54,0000.47
2021-12-20 09:46:00,,0824.9,5.00,0.00,23.2,22.2,00.0,32.2,24.8,05.7,0000.0,0000.75,0000.54,0000.47
2021-12-20 09:47:00,,0824.9,5.01,0.00,23.2,22.2,00.0,32.2,24.8,05.7,0000.0,0000.78,0000.55,0000.47
2021-12-20 09:48:00,,0824.9,5.00,0.00,23.2,22.2,00.0,32.2,24.8,05.7,0000.0,0000.78,0000.55,0000.48
2021-12-20 09:49:00,,0824.8,5.01,0.00,23.2,22.2,00.0,32.2,24.9,05.7,0000.0,0000.84,0000.57,0000.47
2021-12-20 09:50:00,,0825.0,5.01,0.00,23.2,22.2,00.0,32.2,24.9,05.6,0000.0,0000.86,0000.57,0000.47
2021-12-20 09:51:00,,0824.9,4.98,0.00,23.2,22.1,00.0,32.2,24.9,05.6,0000.0,0001.61,0000.55,0000.46
2021-12-20 09:52:00,,0824.9,5.01,0.00,23.1,22.1,00.0,32.2,24.9,05.7,0000.0,0002.14,0000.55,0000.47
2021-12-20 09:53:00,,0824.9,5.00,0.00,23.1,22.1,00.0,32.2,24.8,05.7,0000.0,0002.20,0000.57,0000.47
2021-12-20 09:54:00,,0824.9,4.99,0.00,23.1,22.1,00.0,32.2,24.7,05.6,0000.0,0003.26,0000.60,0000.47
2021-12-20 09:55:00,,0824.9,5.01,0.00,23.1,22.1,00.0,32.2,24.8,05.6,0000.0,0003.23,0000.60,0000.47
2021-12-20 09:56:00,,0825.1,4.98,0.00,23.1,22.1,00.0,32.2,24.7,05.7,0000.0,0003.22,0000.59,0000.46
2021-12-20 09:57:00,,0825.1,4.99,0.00,23.0,22.1,00.0,32.1,24.6,05.6,0000.0,0003.23,0000.59,0000.46
2021-12-20 09:58:00,,0825.0,5.00,0.00,23.0,22.0,00.0,32.1,24.6,05.6,0000.0,0003.24,0000.60,0000.47
2021-12-20 09:59:00,,0825.1,5.00,0.00,23.0,22.0,00.0,32.1,24.6,05.6,0000.0,0003.27,0000.62,0000.48
